<?xml version="1.0" encoding="UTF-8" standalone="no" ?>
<gpx xmlns="http://www.topografix.com/GPX/1/1" xmlns:xsi="http://www.w3.org/2001/XMLSchema-instance" xsi:schemaLocation="http://www.topografix.com/GPX/1/1 http://www.topografix.com/GPX/1/1/gpx.xsd" version="1.1" creator="VisuGPX - https://www.visugpx.com">
  <metadata>
    <name>Nocturne Faumont 2025 : 35 km intermédiaire</name>
    <desc><![CDATA[Parcours intermédiaire de 35 km de la Nocturne de Faumont 2025]]></desc>
  </metadata>
  <trk>
    <name><![CDATA[Nocturne Faumont 2025 - 35 km intermédiaire-19767156]]></name>
    <extensions>
      <line xmlns="http://www.topografix.com/GPX/gpx_style/0/2">
        <color>0000FF</color>
        <width>4</width>
      </line>
    </extensions>
    <trkseg>
      <trkpt lat="50.4576" lon="3.13742">
        <ele>41</ele>
        <time>2025-05-25T12:52:25Z</time>
      </trkpt>
      <trkpt lat="50.45757" lon="3.13678">
        <ele>42</ele>
        <time>2025-05-25T12:52:35Z</time>
      </trkpt>
      <trkpt lat="50.46161" lon="3.1369">
        <ele>37</ele>
        <time>2025-05-25T12:54:09Z</time>
      </trkpt>
      <trkpt lat="50.46206" lon="3.137">
        <ele>36</ele>
        <time>2025-05-25T12:54:20Z</time>
      </trkpt>
      <trkpt lat="50.46229" lon="3.13715">
        <ele>36</ele>
        <time>2025-05-25T12:54:25Z</time>
      </trkpt>
      <trkpt lat="50.4625" lon="3.13702">
        <ele>35</ele>
        <time>2025-05-25T12:54:31Z</time>
      </trkpt>
      <trkpt lat="50.46299" lon="3.13705">
        <ele>35</ele>
        <time>2025-05-25T12:54:42Z</time>
      </trkpt>
      <trkpt lat="50.46344" lon="3.13115">
        <ele>35</ele>
        <time>2025-05-25T12:56:10Z</time>
      </trkpt>
      <trkpt lat="50.46357" lon="3.12993">
        <ele>35</ele>
        <time>2025-05-25T12:56:29Z</time>
      </trkpt>
      <trkpt lat="50.46394" lon="3.12887">
        <ele>34</ele>
        <time>2025-05-25T12:56:47Z</time>
      </trkpt>
      <trkpt lat="50.46467" lon="3.12768">
        <ele>35</ele>
        <time>2025-05-25T12:57:11Z</time>
      </trkpt>
      <trkpt lat="50.46531" lon="3.12668">
        <ele>35</ele>
        <time>2025-05-25T12:57:32Z</time>
      </trkpt>
      <trkpt lat="50.46607" lon="3.12521">
        <ele>34</ele>
        <time>2025-05-25T12:58:01Z</time>
      </trkpt>
      <trkpt lat="50.46696" lon="3.12043">
        <ele>36</ele>
        <time>2025-05-25T12:59:15Z</time>
      </trkpt>
      <trkpt lat="50.46753" lon="3.11749">
        <ele>38</ele>
        <time>2025-05-25T13:00:00Z</time>
      </trkpt>
      <trkpt lat="50.46753" lon="3.11403">
        <ele>38</ele>
        <time>2025-05-25T13:00:52Z</time>
      </trkpt>
      <trkpt lat="50.46796" lon="3.11273">
        <ele>39</ele>
        <time>2025-05-25T13:01:13Z</time>
      </trkpt>
      <trkpt lat="50.46642" lon="3.11313">
        <ele>36</ele>
        <time>2025-05-25T13:01:50Z</time>
      </trkpt>
      <trkpt lat="50.46703" lon="3.10852">
        <ele>41</ele>
        <time>2025-05-25T13:03:00Z</time>
      </trkpt>
      <trkpt lat="50.46756" lon="3.10833">
        <ele>44</ele>
        <time>2025-05-25T13:03:13Z</time>
      </trkpt>
      <trkpt lat="50.4677" lon="3.10751">
        <ele>46</ele>
        <time>2025-05-25T13:03:25Z</time>
      </trkpt>
      <trkpt lat="50.46795" lon="3.10685">
        <ele>43</ele>
        <time>2025-05-25T13:03:37Z</time>
      </trkpt>
      <trkpt lat="50.46798" lon="3.10652">
        <ele>42</ele>
        <time>2025-05-25T13:03:42Z</time>
      </trkpt>
      <trkpt lat="50.46776" lon="3.10554">
        <ele>40</ele>
        <time>2025-05-25T13:03:57Z</time>
      </trkpt>
      <trkpt lat="50.46779" lon="3.10459">
        <ele>40</ele>
        <time>2025-05-25T13:04:11Z</time>
      </trkpt>
      <trkpt lat="50.46763" lon="3.10395">
        <ele>40</ele>
        <time>2025-05-25T13:04:21Z</time>
      </trkpt>
      <trkpt lat="50.46738" lon="3.10189">
        <ele>41</ele>
        <time>2025-05-25T13:04:53Z</time>
      </trkpt>
      <trkpt lat="50.46751" lon="3.10103">
        <ele>42</ele>
        <time>2025-05-25T13:05:06Z</time>
      </trkpt>
      <trkpt lat="50.46781" lon="3.09998">
        <ele>43</ele>
        <time>2025-05-25T13:05:23Z</time>
      </trkpt>
      <trkpt lat="50.46829" lon="3.09902">
        <ele>43</ele>
        <time>2025-05-25T13:05:41Z</time>
      </trkpt>
      <trkpt lat="50.46895" lon="3.09808">
        <ele>46</ele>
        <time>2025-05-25T13:06:02Z</time>
      </trkpt>
      <trkpt lat="50.46936" lon="3.0971">
        <ele>46</ele>
        <time>2025-05-25T13:06:19Z</time>
      </trkpt>
      <trkpt lat="50.46988" lon="3.09722">
        <ele>47</ele>
        <time>2025-05-25T13:06:31Z</time>
      </trkpt>
      <trkpt lat="50.47155" lon="3.09834">
        <ele>51</ele>
        <time>2025-05-25T13:07:14Z</time>
      </trkpt>
      <trkpt lat="50.4729" lon="3.09959">
        <ele>56</ele>
        <time>2025-05-25T13:07:50Z</time>
      </trkpt>
      <trkpt lat="50.47456" lon="3.09953">
        <ele>64</ele>
        <time>2025-05-25T13:08:29Z</time>
      </trkpt>
      <trkpt lat="50.47418" lon="3.0947">
        <ele>60</ele>
        <time>2025-05-25T13:09:42Z</time>
      </trkpt>
      <trkpt lat="50.47448" lon="3.09314">
        <ele>59</ele>
        <time>2025-05-25T13:10:06Z</time>
      </trkpt>
      <trkpt lat="50.47647" lon="3.08782">
        <ele>54</ele>
        <time>2025-05-25T13:11:38Z</time>
      </trkpt>
      <trkpt lat="50.47754" lon="3.08575">
        <ele>54</ele>
        <time>2025-05-25T13:12:17Z</time>
      </trkpt>
      <trkpt lat="50.47824" lon="3.0846">
        <ele>53</ele>
        <time>2025-05-25T13:12:41Z</time>
      </trkpt>
      <trkpt lat="50.47935" lon="3.08384">
        <ele>55</ele>
        <time>2025-05-25T13:13:09Z</time>
      </trkpt>
      <trkpt lat="50.47988" lon="3.08334">
        <ele>55</ele>
        <time>2025-05-25T13:13:24Z</time>
      </trkpt>
      <trkpt lat="50.48039" lon="3.0826">
        <ele>53</ele>
        <time>2025-05-25T13:13:40Z</time>
      </trkpt>
      <trkpt lat="50.48072" lon="3.08155">
        <ele>48</ele>
        <time>2025-05-25T13:13:57Z</time>
      </trkpt>
      <trkpt lat="50.48082" lon="3.08088">
        <ele>49</ele>
        <time>2025-05-25T13:14:07Z</time>
      </trkpt>
      <trkpt lat="50.48082" lon="3.08004">
        <ele>49</ele>
        <time>2025-05-25T13:14:20Z</time>
      </trkpt>
      <trkpt lat="50.48072" lon="3.07916">
        <ele>48</ele>
        <time>2025-05-25T13:14:33Z</time>
      </trkpt>
      <trkpt lat="50.47984" lon="3.07569">
        <ele>49.8</ele>
      </trkpt>
      <trkpt lat="50.47943" lon="3.07442">
        <ele>51</ele>
      </trkpt>
      <trkpt lat="50.47912" lon="3.07233">
        <ele>52</ele>
      </trkpt>
      <trkpt lat="50.47896" lon="3.07059">
        <ele>53</ele>
      </trkpt>
      <trkpt lat="50.48166" lon="3.07067">
        <ele>51</ele>
      </trkpt>
      <trkpt lat="50.48271" lon="3.07024">
        <ele>49</ele>
      </trkpt>
      <trkpt lat="50.48762" lon="3.07083">
        <ele>45</ele>
      </trkpt>
      <trkpt lat="50.48903" lon="3.0707">
        <ele>44</ele>
      </trkpt>
      <trkpt lat="50.48954" lon="3.07058">
        <ele>44</ele>
      </trkpt>
      <trkpt lat="50.49075" lon="3.07144">
        <ele>44.1</ele>
      </trkpt>
      <trkpt lat="50.49096" lon="3.07137">
        <ele>44</ele>
      </trkpt>
      <trkpt lat="50.49142" lon="3.07085">
        <ele>44</ele>
      </trkpt>
    </trkseg>
  </trk>
  <trk>
    <name><![CDATA[Nocturne Faumont 2025 : 35 km intermédiaire_2]]></name>
    <trkseg>
      <trkpt lat="50.48072" lon="3.07916">
        <ele>48</ele>
        <time>2025-05-25T13:14:33Z</time>
      </trkpt>
      <trkpt lat="50.4813" lon="3.07876">
        <ele>48</ele>
        <time>2025-05-25T13:14:48Z</time>
      </trkpt>
      <trkpt lat="50.48155" lon="3.07824">
        <ele>47</ele>
        <time>2025-05-25T13:14:58Z</time>
      </trkpt>
      <trkpt lat="50.48157" lon="3.07782">
        <ele>47</ele>
        <time>2025-05-25T13:15:04Z</time>
      </trkpt>
      <trkpt lat="50.48206" lon="3.07723">
        <ele>46</ele>
        <time>2025-05-25T13:15:18Z</time>
      </trkpt>
      <trkpt lat="50.48285" lon="3.07703">
        <ele>45</ele>
        <time>2025-05-25T13:15:37Z</time>
      </trkpt>
      <trkpt lat="50.48291" lon="3.07678">
        <ele>45</ele>
        <time>2025-05-25T13:15:41Z</time>
      </trkpt>
      <trkpt lat="50.48353" lon="3.07671">
        <ele>46</ele>
        <time>2025-05-25T13:15:55Z</time>
      </trkpt>
      <trkpt lat="50.48421" lon="3.07709">
        <ele>47</ele>
        <time>2025-05-25T13:16:12Z</time>
      </trkpt>
      <trkpt lat="50.48511" lon="3.07708">
        <ele>46</ele>
        <time>2025-05-25T13:16:33Z</time>
      </trkpt>
      <trkpt lat="50.48533" lon="3.07653">
        <ele>45</ele>
        <time>2025-05-25T13:16:43Z</time>
      </trkpt>
      <trkpt lat="50.48611" lon="3.07622">
        <ele>44</ele>
        <time>2025-05-25T13:17:02Z</time>
      </trkpt>
      <trkpt lat="50.48625" lon="3.0759">
        <ele>44</ele>
        <time>2025-05-25T13:17:08Z</time>
      </trkpt>
      <trkpt lat="50.487" lon="3.07574">
        <ele>44</ele>
        <time>2025-05-25T13:17:25Z</time>
      </trkpt>
      <trkpt lat="50.48763" lon="3.07517">
        <ele>43</ele>
        <time>2025-05-25T13:17:42Z</time>
      </trkpt>
      <trkpt lat="50.48816" lon="3.07518">
        <ele>43</ele>
        <time>2025-05-25T13:17:55Z</time>
      </trkpt>
      <trkpt lat="50.48877" lon="3.07504">
        <ele>42</ele>
        <time>2025-05-25T13:18:09Z</time>
      </trkpt>
      <trkpt lat="50.48931" lon="3.07475">
        <ele>42</ele>
        <time>2025-05-25T13:18:22Z</time>
      </trkpt>
      <trkpt lat="50.49002" lon="3.07543">
        <ele>42</ele>
        <time>2025-05-25T13:18:42Z</time>
      </trkpt>
      <trkpt lat="50.49033" lon="3.07564">
        <ele>42</ele>
        <time>2025-05-25T13:18:50Z</time>
      </trkpt>
      <trkpt lat="50.49088" lon="3.07623">
        <ele>43</ele>
        <time>2025-05-25T13:19:05Z</time>
      </trkpt>
      <trkpt lat="50.49101" lon="3.07476">
        <ele>42</ele>
        <time>2025-05-25T13:19:27Z</time>
      </trkpt>
      <trkpt lat="50.49106" lon="3.07371">
        <ele>42</ele>
        <time>2025-05-25T13:19:43Z</time>
      </trkpt>
      <trkpt lat="50.4913" lon="3.07109">
        <ele>44</ele>
        <time>2025-05-25T13:20:22Z</time>
      </trkpt>
      <trkpt lat="50.49143" lon="3.07084">
        <ele>44</ele>
        <time>2025-05-25T13:20:27Z</time>
      </trkpt>
    </trkseg>
  </trk>
  <trk>
    <name><![CDATA[Nocturne Faumont 2025 : 35 km intermédiaire_3]]></name>
    <trkseg>
      <trkpt lat="50.49143" lon="3.07084">
        <ele>44</ele>
        <time>2025-05-25T13:20:27Z</time>
      </trkpt>
      <trkpt lat="50.49228" lon="3.07031">
        <ele>44</ele>
        <time>2025-05-25T13:20:48Z</time>
      </trkpt>
      <trkpt lat="50.49295" lon="3.06987">
        <ele>44</ele>
        <time>2025-05-25T13:21:05Z</time>
      </trkpt>
      <trkpt lat="50.49281" lon="3.06856">
        <ele>45</ele>
        <time>2025-05-25T13:21:25Z</time>
      </trkpt>
      <trkpt lat="50.49231" lon="3.06675">
        <ele>52</ele>
        <time>2025-05-25T13:21:54Z</time>
      </trkpt>
      <trkpt lat="50.49205" lon="3.06679">
        <ele>54</ele>
        <time>2025-05-25T13:22:00Z</time>
      </trkpt>
      <trkpt lat="50.49176" lon="3.0671">
        <ele>54</ele>
        <time>2025-05-25T13:22:09Z</time>
      </trkpt>
      <trkpt lat="50.49097" lon="3.06787">
        <ele>51</ele>
        <time>2025-05-25T13:22:30Z</time>
      </trkpt>
      <trkpt lat="50.49071" lon="3.06797">
        <ele>50</ele>
        <time>2025-05-25T13:22:37Z</time>
      </trkpt>
      <trkpt lat="50.49065" lon="3.06772">
        <ele>51</ele>
        <time>2025-05-25T13:22:41Z</time>
      </trkpt>
      <trkpt lat="50.49063" lon="3.06703">
        <ele>53</ele>
        <time>2025-05-25T13:22:51Z</time>
      </trkpt>
      <trkpt lat="50.49075" lon="3.0643">
        <ele>54</ele>
        <time>2025-05-25T13:23:31Z</time>
      </trkpt>
      <trkpt lat="50.4907" lon="3.06285">
        <ele>52</ele>
        <time>2025-05-25T13:23:53Z</time>
      </trkpt>
      <trkpt lat="50.49078" lon="3.06204">
        <ele>53</ele>
        <time>2025-05-25T13:24:05Z</time>
      </trkpt>
      <trkpt lat="50.49084" lon="3.06172">
        <ele>54</ele>
        <time>2025-05-25T13:24:10Z</time>
      </trkpt>
      <trkpt lat="50.4909" lon="3.0627">
        <ele>54</ele>
        <time>2025-05-25T13:24:25Z</time>
      </trkpt>
      <trkpt lat="50.4911" lon="3.06349">
        <ele>55</ele>
        <time>2025-05-25T13:24:37Z</time>
      </trkpt>
      <trkpt lat="50.49163" lon="3.065">
        <ele>57</ele>
        <time>2025-05-25T13:25:03Z</time>
      </trkpt>
      <trkpt lat="50.49172" lon="3.06545">
        <ele>57</ele>
        <time>2025-05-25T13:25:10Z</time>
      </trkpt>
      <trkpt lat="50.49197" lon="3.06577">
        <ele>56</ele>
        <time>2025-05-25T13:25:18Z</time>
      </trkpt>
      <trkpt lat="50.49239" lon="3.06592">
        <ele>54</ele>
        <time>2025-05-25T13:25:28Z</time>
      </trkpt>
      <trkpt lat="50.4927" lon="3.06559">
        <ele>54</ele>
        <time>2025-05-25T13:25:36Z</time>
      </trkpt>
      <trkpt lat="50.49279" lon="3.06551">
        <ele>54</ele>
        <time>2025-05-25T13:25:39Z</time>
      </trkpt>
      <trkpt lat="50.49286" lon="3.06549">
        <ele>54</ele>
        <time>2025-05-25T13:25:40Z</time>
      </trkpt>
      <trkpt lat="50.4931" lon="3.06558">
        <ele>54</ele>
        <time>2025-05-25T13:25:46Z</time>
      </trkpt>
      <trkpt lat="50.4941" lon="3.0657">
        <ele>54</ele>
        <time>2025-05-25T13:26:10Z</time>
      </trkpt>
      <trkpt lat="50.49438" lon="3.06584">
        <ele>54</ele>
        <time>2025-05-25T13:26:17Z</time>
      </trkpt>
      <trkpt lat="50.49453" lon="3.06583">
        <ele>55</ele>
        <time>2025-05-25T13:26:20Z</time>
      </trkpt>
      <trkpt lat="50.49483" lon="3.06584">
        <ele>56</ele>
        <time>2025-05-25T13:26:27Z</time>
      </trkpt>
      <trkpt lat="50.49494" lon="3.06587">
        <ele>56</ele>
        <time>2025-05-25T13:26:30Z</time>
      </trkpt>
      <trkpt lat="50.49518" lon="3.06609">
        <ele>55</ele>
        <time>2025-05-25T13:26:36Z</time>
      </trkpt>
      <trkpt lat="50.49581" lon="3.06488">
        <ele>54</ele>
        <time>2025-05-25T13:26:59Z</time>
      </trkpt>
      <trkpt lat="50.49558" lon="3.06461">
        <ele>54</ele>
        <time>2025-05-25T13:27:06Z</time>
      </trkpt>
      <trkpt lat="50.49676" lon="3.06184">
        <ele>53</ele>
        <time>2025-05-25T13:27:56Z</time>
      </trkpt>
      <trkpt lat="50.49754" lon="3.06324">
        <ele>49</ele>
        <time>2025-05-25T13:28:23Z</time>
      </trkpt>
      <trkpt lat="50.4984" lon="3.06555">
        <ele>50</ele>
        <time>2025-05-25T13:29:03Z</time>
      </trkpt>
      <trkpt lat="50.49858" lon="3.0654">
        <ele>49</ele>
        <time>2025-05-25T13:29:08Z</time>
      </trkpt>
      <trkpt lat="50.49908" lon="3.06629">
        <ele>50</ele>
        <time>2025-05-25T13:29:25Z</time>
      </trkpt>
      <trkpt lat="50.499" lon="3.06643">
        <ele>51</ele>
        <time>2025-05-25T13:29:28Z</time>
      </trkpt>
      <trkpt lat="50.49917" lon="3.06673">
        <ele>51</ele>
        <time>2025-05-25T13:29:34Z</time>
      </trkpt>
      <trkpt lat="50.50236" lon="3.06236">
        <ele>59</ele>
        <time>2025-05-25T13:31:13Z</time>
      </trkpt>
      <trkpt lat="50.50503" lon="3.05863">
        <ele>61</ele>
        <time>2025-05-25T13:32:36Z</time>
      </trkpt>
      <trkpt lat="50.50311" lon="3.05503">
        <ele>62</ele>
        <time>2025-05-25T13:33:46Z</time>
      </trkpt>
      <trkpt lat="50.50301" lon="3.0548">
        <ele>61</ele>
        <time>2025-05-25T13:33:50Z</time>
      </trkpt>
      <trkpt lat="50.5029" lon="3.05451">
        <ele>61</ele>
        <time>2025-05-25T13:33:55Z</time>
      </trkpt>
      <trkpt lat="50.50272" lon="3.05437">
        <ele>61</ele>
        <time>2025-05-25T13:34:00Z</time>
      </trkpt>
      <trkpt lat="50.50259" lon="3.05406">
        <ele>60</ele>
        <time>2025-05-25T13:34:06Z</time>
      </trkpt>
      <trkpt lat="50.50238" lon="3.05375">
        <ele>58</ele>
        <time>2025-05-25T13:34:12Z</time>
      </trkpt>
      <trkpt lat="50.50232" lon="3.05372">
        <ele>58</ele>
        <time>2025-05-25T13:34:14Z</time>
      </trkpt>
      <trkpt lat="50.50224" lon="3.05369">
        <ele>57</ele>
        <time>2025-05-25T13:34:16Z</time>
      </trkpt>
      <trkpt lat="50.50224" lon="3.05411">
        <ele>58</ele>
        <time>2025-05-25T13:34:22Z</time>
      </trkpt>
      <trkpt lat="50.5022" lon="3.05431">
        <ele>58</ele>
        <time>2025-05-25T13:34:25Z</time>
      </trkpt>
      <trkpt lat="50.50224" lon="3.055">
        <ele>60</ele>
        <time>2025-05-25T13:34:35Z</time>
      </trkpt>
      <trkpt lat="50.50234" lon="3.0556">
        <ele>59</ele>
        <time>2025-05-25T13:34:44Z</time>
      </trkpt>
      <trkpt lat="50.50232" lon="3.05603">
        <ele>58</ele>
        <time>2025-05-25T13:34:51Z</time>
      </trkpt>
      <trkpt lat="50.50243" lon="3.05641">
        <ele>58</ele>
        <time>2025-05-25T13:34:57Z</time>
      </trkpt>
      <trkpt lat="50.50269" lon="3.05663">
        <ele>59</ele>
        <time>2025-05-25T13:35:04Z</time>
      </trkpt>
      <trkpt lat="50.50289" lon="3.05718">
        <ele>59</ele>
        <time>2025-05-25T13:35:13Z</time>
      </trkpt>
      <trkpt lat="50.50298" lon="3.05744">
        <ele>59</ele>
        <time>2025-05-25T13:35:18Z</time>
      </trkpt>
      <trkpt lat="50.50316" lon="3.05838">
        <ele>58</ele>
        <time>2025-05-25T13:35:32Z</time>
      </trkpt>
      <trkpt lat="50.50312" lon="3.05894">
        <ele>59</ele>
        <time>2025-05-25T13:35:41Z</time>
      </trkpt>
      <trkpt lat="50.50299" lon="3.05913">
        <ele>58</ele>
        <time>2025-05-25T13:35:45Z</time>
      </trkpt>
      <trkpt lat="50.50279" lon="3.05924">
        <ele>58</ele>
        <time>2025-05-25T13:35:50Z</time>
      </trkpt>
      <trkpt lat="50.50268" lon="3.05926">
        <ele>57</ele>
        <time>2025-05-25T13:35:52Z</time>
      </trkpt>
      <trkpt lat="50.50231" lon="3.05946">
        <ele>57</ele>
        <time>2025-05-25T13:36:02Z</time>
      </trkpt>
      <trkpt lat="50.50197" lon="3.05995">
        <ele>57</ele>
        <time>2025-05-25T13:36:12Z</time>
      </trkpt>
      <trkpt lat="50.50175" lon="3.06007">
        <ele>57</ele>
        <time>2025-05-25T13:36:18Z</time>
      </trkpt>
      <trkpt lat="50.50121" lon="3.05994">
        <ele>56</ele>
        <time>2025-05-25T13:36:31Z</time>
      </trkpt>
      <trkpt lat="50.50077" lon="3.05933">
        <ele>54</ele>
        <time>2025-05-25T13:36:44Z</time>
      </trkpt>
      <trkpt lat="50.4997" lon="3.05743">
        <ele>52</ele>
        <time>2025-05-25T13:37:22Z</time>
      </trkpt>
      <trkpt lat="50.49957" lon="3.05733">
        <ele>51</ele>
        <time>2025-05-25T13:37:25Z</time>
      </trkpt>
      <trkpt lat="50.49923" lon="3.05745">
        <ele>50</ele>
        <time>2025-05-25T13:37:33Z</time>
      </trkpt>
      <trkpt lat="50.49887" lon="3.05784">
        <ele>50</ele>
        <time>2025-05-25T13:37:44Z</time>
      </trkpt>
      <trkpt lat="50.49873" lon="3.05828">
        <ele>51</ele>
        <time>2025-05-25T13:37:51Z</time>
      </trkpt>
      <trkpt lat="50.49854" lon="3.05839">
        <ele>50</ele>
        <time>2025-05-25T13:37:56Z</time>
      </trkpt>
      <trkpt lat="50.49818" lon="3.05841">
        <ele>48</ele>
        <time>2025-05-25T13:38:04Z</time>
      </trkpt>
      <trkpt lat="50.49782" lon="3.05877">
        <ele>47</ele>
        <time>2025-05-25T13:38:14Z</time>
      </trkpt>
      <trkpt lat="50.49757" lon="3.05918">
        <ele>46</ele>
        <time>2025-05-25T13:38:23Z</time>
      </trkpt>
      <trkpt lat="50.4969" lon="3.05962">
        <ele>50</ele>
        <time>2025-05-25T13:38:39Z</time>
      </trkpt>
      <trkpt lat="50.49644" lon="3.05964">
        <ele>52</ele>
        <time>2025-05-25T13:38:50Z</time>
      </trkpt>
      <trkpt lat="50.49608" lon="3.05945">
        <ele>51</ele>
        <time>2025-05-25T13:38:59Z</time>
      </trkpt>
      <trkpt lat="50.49542" lon="3.05981">
        <ele>53</ele>
        <time>2025-05-25T13:39:15Z</time>
      </trkpt>
      <trkpt lat="50.49498" lon="3.05943">
        <ele>52</ele>
        <time>2025-05-25T13:39:27Z</time>
      </trkpt>
      <trkpt lat="50.49479" lon="3.05942">
        <ele>52</ele>
        <time>2025-05-25T13:39:32Z</time>
      </trkpt>
      <trkpt lat="50.49441" lon="3.05995">
        <ele>54</ele>
        <time>2025-05-25T13:39:43Z</time>
      </trkpt>
      <trkpt lat="50.49417" lon="3.06008">
        <ele>54</ele>
        <time>2025-05-25T13:39:49Z</time>
      </trkpt>
      <trkpt lat="50.4939" lon="3.05988">
        <ele>54</ele>
        <time>2025-05-25T13:39:56Z</time>
      </trkpt>
      <trkpt lat="50.49367" lon="3.05918">
        <ele>53</ele>
        <time>2025-05-25T13:40:08Z</time>
      </trkpt>
      <trkpt lat="50.49291" lon="3.05815">
        <ele>54</ele>
        <time>2025-05-25T13:40:31Z</time>
      </trkpt>
      <trkpt lat="50.4929" lon="3.0578">
        <ele>53</ele>
        <time>2025-05-25T13:40:37Z</time>
      </trkpt>
      <trkpt lat="50.49271" lon="3.05726">
        <ele>53</ele>
        <time>2025-05-25T13:40:46Z</time>
      </trkpt>
      <trkpt lat="50.49246" lon="3.05683">
        <ele>53</ele>
        <time>2025-05-25T13:40:54Z</time>
      </trkpt>
      <trkpt lat="50.4924" lon="3.05642">
        <ele>52</ele>
        <time>2025-05-25T13:41:01Z</time>
      </trkpt>
      <trkpt lat="50.492" lon="3.05627">
        <ele>54</ele>
        <time>2025-05-25T13:41:10Z</time>
      </trkpt>
      <trkpt lat="50.4919" lon="3.05615">
        <ele>54</ele>
        <time>2025-05-25T13:41:13Z</time>
      </trkpt>
      <trkpt lat="50.49204" lon="3.06072">
        <ele>56</ele>
        <time>2025-05-25T13:42:21Z</time>
      </trkpt>
      <trkpt lat="50.49101" lon="3.05959">
        <ele>54</ele>
        <time>2025-05-25T13:42:51Z</time>
      </trkpt>
      <trkpt lat="50.49095" lon="3.05738">
        <ele>54</ele>
        <time>2025-05-25T13:43:23Z</time>
      </trkpt>
      <trkpt lat="50.49095" lon="3.05681">
        <ele>55</ele>
        <time>2025-05-25T13:43:32Z</time>
      </trkpt>
      <trkpt lat="50.49098" lon="3.0558">
        <ele>54</ele>
        <time>2025-05-25T13:43:47Z</time>
      </trkpt>
      <trkpt lat="50.49133" lon="3.05562">
        <ele>53</ele>
        <time>2025-05-25T13:43:56Z</time>
      </trkpt>
      <trkpt lat="50.49143" lon="3.05576">
        <ele>54</ele>
        <time>2025-05-25T13:43:59Z</time>
      </trkpt>
      <trkpt lat="50.49188" lon="3.05611">
        <ele>54</ele>
        <time>2025-05-25T13:44:10Z</time>
      </trkpt>
      <trkpt lat="50.49189" lon="3.05563">
        <ele>52</ele>
        <time>2025-05-25T13:44:18Z</time>
      </trkpt>
      <trkpt lat="50.49259" lon="3.05435">
        <ele>47</ele>
        <time>2025-05-25T13:44:43Z</time>
      </trkpt>
      <trkpt lat="50.49101" lon="3.05018">
        <ele>53</ele>
        <time>2025-05-25T13:45:55Z</time>
      </trkpt>
      <trkpt lat="50.49162" lon="3.04955">
        <ele>54</ele>
        <time>2025-05-25T13:46:12Z</time>
      </trkpt>
      <trkpt lat="50.492" lon="3.04901">
        <ele>54</ele>
        <time>2025-05-25T13:46:24Z</time>
      </trkpt>
      <trkpt lat="50.49182" lon="3.04733">
        <ele>58</ele>
        <time>2025-05-25T13:46:49Z</time>
      </trkpt>
      <trkpt lat="50.48955" lon="3.04764">
        <ele>56</ele>
        <time>2025-05-25T13:47:42Z</time>
      </trkpt>
      <trkpt lat="50.48882" lon="3.04769">
        <ele>57</ele>
        <time>2025-05-25T13:47:59Z</time>
      </trkpt>
      <trkpt lat="50.48845" lon="3.04757">
        <ele>58</ele>
        <time>2025-05-25T13:48:08Z</time>
      </trkpt>
      <trkpt lat="50.48817" lon="3.04731">
        <ele>58</ele>
        <time>2025-05-25T13:48:16Z</time>
      </trkpt>
      <trkpt lat="50.48678" lon="3.04556">
        <ele>59</ele>
        <time>2025-05-25T13:48:57Z</time>
      </trkpt>
      <trkpt lat="50.4856" lon="3.04493">
        <ele>63</ele>
        <time>2025-05-25T13:49:26Z</time>
      </trkpt>
      <trkpt lat="50.48528" lon="3.04463">
        <ele>63</ele>
        <time>2025-05-25T13:49:35Z</time>
      </trkpt>
      <trkpt lat="50.48517" lon="3.04435">
        <ele>63</ele>
        <time>2025-05-25T13:49:40Z</time>
      </trkpt>
      <trkpt lat="50.48519" lon="3.04338">
        <ele>62</ele>
        <time>2025-05-25T13:49:54Z</time>
      </trkpt>
      <trkpt lat="50.48524" lon="3.04253">
        <ele>63</ele>
        <time>2025-05-25T13:50:07Z</time>
      </trkpt>
      <trkpt lat="50.48521" lon="3.04241">
        <ele>63</ele>
        <time>2025-05-25T13:50:09Z</time>
      </trkpt>
      <trkpt lat="50.4851" lon="3.04244">
        <ele>63</ele>
        <time>2025-05-25T13:50:12Z</time>
      </trkpt>
      <trkpt lat="50.48499" lon="3.04285">
        <ele>63</ele>
        <time>2025-05-25T13:50:18Z</time>
      </trkpt>
      <trkpt lat="50.48472" lon="3.043">
        <ele>62</ele>
        <time>2025-05-25T13:50:25Z</time>
      </trkpt>
      <trkpt lat="50.48455" lon="3.04313">
        <ele>61</ele>
        <time>2025-05-25T13:50:29Z</time>
      </trkpt>
      <trkpt lat="50.48439" lon="3.04307">
        <ele>61</ele>
        <time>2025-05-25T13:50:33Z</time>
      </trkpt>
      <trkpt lat="50.48387" lon="3.04173">
        <ele>60</ele>
        <time>2025-05-25T13:50:57Z</time>
      </trkpt>
      <trkpt lat="50.48367" lon="3.04134">
        <ele>59</ele>
        <time>2025-05-25T13:51:04Z</time>
      </trkpt>
      <trkpt lat="50.48321" lon="3.04138">
        <ele>58</ele>
        <time>2025-05-25T13:51:15Z</time>
      </trkpt>
      <trkpt lat="50.48279" lon="3.04164">
        <ele>58</ele>
        <time>2025-05-25T13:51:25Z</time>
      </trkpt>
      <trkpt lat="50.48131" lon="3.0429">
        <ele>57</ele>
        <time>2025-05-25T13:52:05Z</time>
      </trkpt>
      <trkpt lat="50.48017" lon="3.04397">
        <ele>58</ele>
        <time>2025-05-25T13:52:36Z</time>
      </trkpt>
      <trkpt lat="50.47973" lon="3.04472">
        <ele>59</ele>
        <time>2025-05-25T13:52:51Z</time>
      </trkpt>
      <trkpt lat="50.47905" lon="3.04552">
        <ele>60</ele>
        <time>2025-05-25T13:53:11Z</time>
      </trkpt>
      <trkpt lat="50.47794" lon="3.04634">
        <ele>61</ele>
        <time>2025-05-25T13:53:39Z</time>
      </trkpt>
      <trkpt lat="50.47723" lon="3.04606">
        <ele>60</ele>
        <time>2025-05-25T13:53:56Z</time>
      </trkpt>
      <trkpt lat="50.47639" lon="3.04585">
        <ele>58</ele>
        <time>2025-05-25T13:54:16Z</time>
      </trkpt>
      <trkpt lat="50.47619" lon="3.04584">
        <ele>57</ele>
        <time>2025-05-25T13:54:21Z</time>
      </trkpt>
      <trkpt lat="50.4737" lon="3.04632">
        <ele>57</ele>
        <time>2025-05-25T13:55:19Z</time>
      </trkpt>
      <trkpt lat="50.47366" lon="3.04638">
        <ele>57</ele>
        <time>2025-05-25T13:55:21Z</time>
      </trkpt>
      <trkpt lat="50.47462" lon="3.04901">
        <ele>61</ele>
        <time>2025-05-25T13:56:06Z</time>
      </trkpt>
      <trkpt lat="50.47568" lon="3.05183">
        <ele>64</ele>
        <time>2025-05-25T13:56:54Z</time>
      </trkpt>
      <trkpt lat="50.47529" lon="3.05218">
        <ele>64</ele>
        <time>2025-05-25T13:57:05Z</time>
      </trkpt>
      <trkpt lat="50.47589" lon="3.05331">
        <ele>65</ele>
        <time>2025-05-25T13:57:27Z</time>
      </trkpt>
      <trkpt lat="50.47637" lon="3.05414">
        <ele>64</ele>
        <time>2025-05-25T13:57:43Z</time>
      </trkpt>
      <trkpt lat="50.47665" lon="3.05447">
        <ele>64</ele>
        <time>2025-05-25T13:57:52Z</time>
      </trkpt>
      <trkpt lat="50.47573" lon="3.05595">
        <ele>63</ele>
        <time>2025-05-25T13:58:22Z</time>
      </trkpt>
      <trkpt lat="50.47555" lon="3.05646">
        <ele>63</ele>
        <time>2025-05-25T13:58:31Z</time>
      </trkpt>
      <trkpt lat="50.47529" lon="3.05697">
        <ele>63</ele>
        <time>2025-05-25T13:58:41Z</time>
      </trkpt>
      <trkpt lat="50.47535" lon="3.05721">
        <ele>63</ele>
        <time>2025-05-25T13:58:45Z</time>
      </trkpt>
      <trkpt lat="50.47579" lon="3.05818">
        <ele>61</ele>
        <time>2025-05-25T13:59:02Z</time>
      </trkpt>
      <trkpt lat="50.47607" lon="3.05886">
        <ele>59</ele>
        <time>2025-05-25T13:59:14Z</time>
      </trkpt>
      <trkpt lat="50.47631" lon="3.0599">
        <ele>58</ele>
        <time>2025-05-25T13:59:31Z</time>
      </trkpt>
      <trkpt lat="50.47509" lon="3.06166">
        <ele>60</ele>
        <time>2025-05-25T14:00:09Z</time>
      </trkpt>
      <trkpt lat="50.47472" lon="3.06231">
        <ele>61</ele>
        <time>2025-05-25T14:00:22Z</time>
      </trkpt>
      <trkpt lat="50.47411" lon="3.06298">
        <ele>61</ele>
        <time>2025-05-25T14:00:40Z</time>
      </trkpt>
      <trkpt lat="50.4732" lon="3.0644">
        <ele>60</ele>
        <time>2025-05-25T14:01:10Z</time>
      </trkpt>
      <trkpt lat="50.47278" lon="3.065">
        <ele>61</ele>
        <time>2025-05-25T14:01:23Z</time>
      </trkpt>
      <trkpt lat="50.47214" lon="3.06596">
        <ele>63</ele>
        <time>2025-05-25T14:01:44Z</time>
      </trkpt>
      <trkpt lat="50.47165" lon="3.06665">
        <ele>63</ele>
        <time>2025-05-25T14:01:59Z</time>
      </trkpt>
      <trkpt lat="50.47089" lon="3.06781">
        <ele>64</ele>
        <time>2025-05-25T14:02:24Z</time>
      </trkpt>
      <trkpt lat="50.47098" lon="3.06796">
        <ele>64</ele>
        <time>2025-05-25T14:02:27Z</time>
      </trkpt>
      <trkpt lat="50.46974" lon="3.06995">
        <ele>66</ele>
        <time>2025-05-25T14:03:08Z</time>
      </trkpt>
      <trkpt lat="50.46905" lon="3.07047">
        <ele>66</ele>
        <time>2025-05-25T14:03:26Z</time>
      </trkpt>
      <trkpt lat="50.46812" lon="3.07216">
        <ele>65</ele>
        <time>2025-05-25T14:03:59Z</time>
      </trkpt>
      <trkpt lat="50.46779" lon="3.07162">
        <ele>65</ele>
        <time>2025-05-25T14:04:10Z</time>
      </trkpt>
      <trkpt lat="50.46694" lon="3.07011">
        <ele>66</ele>
        <time>2025-05-25T14:04:40Z</time>
      </trkpt>
      <trkpt lat="50.46631" lon="3.06903">
        <ele>69</ele>
        <time>2025-05-25T14:05:02Z</time>
      </trkpt>
      <trkpt lat="50.46627" lon="3.0689">
        <ele>70</ele>
        <time>2025-05-25T14:05:04Z</time>
      </trkpt>
      <trkpt lat="50.46625" lon="3.06871">
        <ele>70</ele>
        <time>2025-05-25T14:05:07Z</time>
      </trkpt>
      <trkpt lat="50.46612" lon="3.06802">
        <ele>72</ele>
        <time>2025-05-25T14:05:18Z</time>
      </trkpt>
      <trkpt lat="50.46589" lon="3.06757">
        <ele>75</ele>
        <time>2025-05-25T14:05:26Z</time>
      </trkpt>
      <trkpt lat="50.46562" lon="3.06776">
        <ele>74</ele>
        <time>2025-05-25T14:05:33Z</time>
      </trkpt>
      <trkpt lat="50.46531" lon="3.06785">
        <ele>72</ele>
        <time>2025-05-25T14:05:41Z</time>
      </trkpt>
      <trkpt lat="50.46519" lon="3.06798">
        <ele>72</ele>
        <time>2025-05-25T14:05:44Z</time>
      </trkpt>
      <trkpt lat="50.46509" lon="3.06792">
        <ele>71</ele>
        <time>2025-05-25T14:05:47Z</time>
      </trkpt>
      <trkpt lat="50.46497" lon="3.06763">
        <ele>71</ele>
        <time>2025-05-25T14:05:52Z</time>
      </trkpt>
      <trkpt lat="50.46474" lon="3.06757">
        <ele>71</ele>
        <time>2025-05-25T14:05:57Z</time>
      </trkpt>
      <trkpt lat="50.4645" lon="3.06718">
        <ele>70</ele>
        <time>2025-05-25T14:06:05Z</time>
      </trkpt>
      <trkpt lat="50.46429" lon="3.06675">
        <ele>70</ele>
        <time>2025-05-25T14:06:13Z</time>
      </trkpt>
      <trkpt lat="50.4633" lon="3.06501">
        <ele>70</ele>
        <time>2025-05-25T14:06:48Z</time>
      </trkpt>
      <trkpt lat="50.46299" lon="3.06461">
        <ele>69</ele>
        <time>2025-05-25T14:06:57Z</time>
      </trkpt>
      <trkpt lat="50.4627" lon="3.06402">
        <ele>71</ele>
        <time>2025-05-25T14:07:09Z</time>
      </trkpt>
      <trkpt lat="50.46259" lon="3.06369">
        <ele>72</ele>
        <time>2025-05-25T14:07:14Z</time>
      </trkpt>
      <trkpt lat="50.46244" lon="3.06361">
        <ele>72</ele>
        <time>2025-05-25T14:07:18Z</time>
      </trkpt>
      <trkpt lat="50.46231" lon="3.06341">
        <ele>72</ele>
        <time>2025-05-25T14:07:22Z</time>
      </trkpt>
      <trkpt lat="50.46218" lon="3.06355">
        <ele>71</ele>
        <time>2025-05-25T14:07:26Z</time>
      </trkpt>
      <trkpt lat="50.46169" lon="3.06417">
        <ele>67</ele>
        <time>2025-05-25T14:07:40Z</time>
      </trkpt>
      <trkpt lat="50.46145" lon="3.06442">
        <ele>67</ele>
        <time>2025-05-25T14:07:47Z</time>
      </trkpt>
      <trkpt lat="50.46131" lon="3.06449">
        <ele>67</ele>
        <time>2025-05-25T14:07:51Z</time>
      </trkpt>
      <trkpt lat="50.46123" lon="3.06465">
        <ele>67</ele>
        <time>2025-05-25T14:07:54Z</time>
      </trkpt>
      <trkpt lat="50.46111" lon="3.06469">
        <ele>67</ele>
        <time>2025-05-25T14:07:56Z</time>
      </trkpt>
      <trkpt lat="50.46096" lon="3.06469">
        <ele>68</ele>
        <time>2025-05-25T14:08:00Z</time>
      </trkpt>
      <trkpt lat="50.46092" lon="3.06482">
        <ele>67</ele>
        <time>2025-05-25T14:08:02Z</time>
      </trkpt>
      <trkpt lat="50.46077" lon="3.06505">
        <ele>67</ele>
        <time>2025-05-25T14:08:07Z</time>
      </trkpt>
      <trkpt lat="50.46024" lon="3.06579">
        <ele>67</ele>
        <time>2025-05-25T14:08:24Z</time>
      </trkpt>
      <trkpt lat="50.45985" lon="3.06637">
        <ele>67</ele>
        <time>2025-05-25T14:08:36Z</time>
      </trkpt>
      <trkpt lat="50.45969" lon="3.06648">
        <ele>67</ele>
        <time>2025-05-25T14:08:40Z</time>
      </trkpt>
      <trkpt lat="50.45952" lon="3.06667">
        <ele>67</ele>
        <time>2025-05-25T14:08:45Z</time>
      </trkpt>
      <trkpt lat="50.45925" lon="3.06676">
        <ele>68</ele>
        <time>2025-05-25T14:08:51Z</time>
      </trkpt>
      <trkpt lat="50.45906" lon="3.06676">
        <ele>68</ele>
        <time>2025-05-25T14:08:56Z</time>
      </trkpt>
      <trkpt lat="50.45889" lon="3.06674">
        <ele>68</ele>
        <time>2025-05-25T14:09:00Z</time>
      </trkpt>
      <trkpt lat="50.45877" lon="3.06657">
        <ele>68</ele>
        <time>2025-05-25T14:09:04Z</time>
      </trkpt>
      <trkpt lat="50.45862" lon="3.06668">
        <ele>67</ele>
        <time>2025-05-25T14:09:08Z</time>
      </trkpt>
      <trkpt lat="50.45856" lon="3.067">
        <ele>66</ele>
        <time>2025-05-25T14:09:12Z</time>
      </trkpt>
      <trkpt lat="50.4586" lon="3.06754">
        <ele>65</ele>
        <time>2025-05-25T14:09:21Z</time>
      </trkpt>
      <trkpt lat="50.4585" lon="3.068">
        <ele>65</ele>
        <time>2025-05-25T14:09:28Z</time>
      </trkpt>
      <trkpt lat="50.45764" lon="3.06904">
        <ele>63</ele>
        <time>2025-05-25T14:09:53Z</time>
      </trkpt>
      <trkpt lat="50.45701" lon="3.06933">
        <ele>63</ele>
        <time>2025-05-25T14:10:08Z</time>
      </trkpt>
      <trkpt lat="50.45613" lon="3.06942">
        <ele>63</ele>
        <time>2025-05-25T14:10:29Z</time>
      </trkpt>
      <trkpt lat="50.45633" lon="3.07063">
        <ele>64</ele>
        <time>2025-05-25T14:10:48Z</time>
      </trkpt>
      <trkpt lat="50.45476" lon="3.07176">
        <ele>66</ele>
        <time>2025-05-25T14:11:28Z</time>
      </trkpt>
      <trkpt lat="50.45534" lon="3.07324">
        <ele>68</ele>
        <time>2025-05-25T14:11:54Z</time>
      </trkpt>
      <trkpt lat="50.45592" lon="3.0755">
        <ele>69</ele>
        <time>2025-05-25T14:12:30Z</time>
      </trkpt>
      <trkpt lat="50.45634" lon="3.07553">
        <ele>67</ele>
        <time>2025-05-25T14:12:40Z</time>
      </trkpt>
      <trkpt lat="50.45668" lon="3.07701">
        <ele>68</ele>
        <time>2025-05-25T14:13:03Z</time>
      </trkpt>
      <trkpt lat="50.45668" lon="3.07753">
        <ele>69</ele>
        <time>2025-05-25T14:13:11Z</time>
      </trkpt>
      <trkpt lat="50.4561" lon="3.07789">
        <ele>69</ele>
        <time>2025-05-25T14:13:26Z</time>
      </trkpt>
      <trkpt lat="50.45564" lon="3.07789">
        <ele>69</ele>
        <time>2025-05-25T14:13:36Z</time>
      </trkpt>
      <trkpt lat="50.45434" lon="3.07828">
        <ele>72</ele>
        <time>2025-05-25T14:14:07Z</time>
      </trkpt>
      <trkpt lat="50.45416" lon="3.07765">
        <ele>72</ele>
        <time>2025-05-25T14:14:17Z</time>
      </trkpt>
      <trkpt lat="50.45355" lon="3.07604">
        <ele>74</ele>
        <time>2025-05-25T14:14:45Z</time>
      </trkpt>
      <trkpt lat="50.45331" lon="3.07626">
        <ele>74</ele>
        <time>2025-05-25T14:14:52Z</time>
      </trkpt>
      <trkpt lat="50.45249" lon="3.07596">
        <ele>75</ele>
        <time>2025-05-25T14:15:11Z</time>
      </trkpt>
      <trkpt lat="50.45234" lon="3.07592">
        <ele>75</ele>
        <time>2025-05-25T14:15:15Z</time>
      </trkpt>
      <trkpt lat="50.45201" lon="3.07625">
        <ele>74</ele>
        <time>2025-05-25T14:15:24Z</time>
      </trkpt>
      <trkpt lat="50.45244" lon="3.07691">
        <ele>73</ele>
        <time>2025-05-25T14:15:38Z</time>
      </trkpt>
      <trkpt lat="50.45136" lon="3.07739">
        <ele>71</ele>
        <time>2025-05-25T14:16:04Z</time>
      </trkpt>
      <trkpt lat="50.45097" lon="3.07748">
        <ele>69</ele>
        <time>2025-05-25T14:16:14Z</time>
      </trkpt>
      <trkpt lat="50.45063" lon="3.07742">
        <ele>67</ele>
        <time>2025-05-25T14:16:22Z</time>
      </trkpt>
      <trkpt lat="50.45031" lon="3.0772">
        <ele>67</ele>
        <time>2025-05-25T14:16:30Z</time>
      </trkpt>
      <trkpt lat="50.44883" lon="3.0757">
        <ele>63</ele>
        <time>2025-05-25T14:17:11Z</time>
      </trkpt>
      <trkpt lat="50.4483" lon="3.07725">
        <ele>60</ele>
        <time>2025-05-25T14:17:37Z</time>
      </trkpt>
      <trkpt lat="50.44809" lon="3.07753">
        <ele>59</ele>
        <time>2025-05-25T14:17:44Z</time>
      </trkpt>
      <trkpt lat="50.44785" lon="3.0777">
        <ele>59</ele>
        <time>2025-05-25T14:17:50Z</time>
      </trkpt>
      <trkpt lat="50.44676" lon="3.07898">
        <ele>56</ele>
        <time>2025-05-25T14:18:21Z</time>
      </trkpt>
      <trkpt lat="50.44638" lon="3.07952">
        <ele>54</ele>
        <time>2025-05-25T14:18:33Z</time>
      </trkpt>
      <trkpt lat="50.44608" lon="3.08003">
        <ele>52</ele>
        <time>2025-05-25T14:18:44Z</time>
      </trkpt>
      <trkpt lat="50.44561" lon="3.08102">
        <ele>50</ele>
        <time>2025-05-25T14:19:02Z</time>
      </trkpt>
      <trkpt lat="50.44496" lon="3.0826">
        <ele>47</ele>
        <time>2025-05-25T14:19:30Z</time>
      </trkpt>
      <trkpt lat="50.44504" lon="3.08263">
        <ele>47</ele>
        <time>2025-05-25T14:19:32Z</time>
      </trkpt>
      <trkpt lat="50.4456" lon="3.08329">
        <ele>51</ele>
        <time>2025-05-25T14:19:48Z</time>
      </trkpt>
      <trkpt lat="50.4449" lon="3.08477">
        <ele>50</ele>
        <time>2025-05-25T14:20:16Z</time>
      </trkpt>
      <trkpt lat="50.44389" lon="3.08741">
        <ele>46</ele>
        <time>2025-05-25T14:21:02Z</time>
      </trkpt>
      <trkpt lat="50.44346" lon="3.08805">
        <ele>45</ele>
        <time>2025-05-25T14:21:15Z</time>
      </trkpt>
      <trkpt lat="50.44312" lon="3.08839">
        <ele>44</ele>
        <time>2025-05-25T14:21:25Z</time>
      </trkpt>
      <trkpt lat="50.44262" lon="3.08871">
        <ele>42</ele>
        <time>2025-05-25T14:21:37Z</time>
      </trkpt>
      <trkpt lat="50.44143" lon="3.08908">
        <ele>40</ele>
        <time>2025-05-25T14:22:06Z</time>
      </trkpt>
      <trkpt lat="50.44096" lon="3.0895">
        <ele>41</ele>
        <time>2025-05-25T14:22:18Z</time>
      </trkpt>
      <trkpt lat="50.44043" lon="3.09022">
        <ele>39</ele>
        <time>2025-05-25T14:22:35Z</time>
      </trkpt>
      <trkpt lat="50.43997" lon="3.09147">
        <ele>37</ele>
        <time>2025-05-25T14:22:56Z</time>
      </trkpt>
      <trkpt lat="50.43942" lon="3.09314">
        <ele>35</ele>
        <time>2025-05-25T14:23:24Z</time>
      </trkpt>
      <trkpt lat="50.43912" lon="3.09388">
        <ele>34</ele>
        <time>2025-05-25T14:23:37Z</time>
      </trkpt>
      <trkpt lat="50.43923" lon="3.09484">
        <ele>34</ele>
        <time>2025-05-25T14:23:52Z</time>
      </trkpt>
      <trkpt lat="50.43923" lon="3.09546">
        <ele>33</ele>
        <time>2025-05-25T14:24:01Z</time>
      </trkpt>
      <trkpt lat="50.43917" lon="3.09611">
        <ele>34</ele>
        <time>2025-05-25T14:24:11Z</time>
      </trkpt>
      <trkpt lat="50.43917" lon="3.09683">
        <ele>35</ele>
        <time>2025-05-25T14:24:21Z</time>
      </trkpt>
      <trkpt lat="50.43908" lon="3.09707">
        <ele>36</ele>
        <time>2025-05-25T14:24:26Z</time>
      </trkpt>
      <trkpt lat="50.43954" lon="3.0978">
        <ele>39</ele>
        <time>2025-05-25T14:24:41Z</time>
      </trkpt>
      <trkpt lat="50.43979" lon="3.09805">
        <ele>40</ele>
        <time>2025-05-25T14:24:48Z</time>
      </trkpt>
      <trkpt lat="50.43993" lon="3.09807">
        <ele>41</ele>
        <time>2025-05-25T14:24:51Z</time>
      </trkpt>
      <trkpt lat="50.44087" lon="3.09858">
        <ele>43</ele>
        <time>2025-05-25T14:25:14Z</time>
      </trkpt>
      <trkpt lat="50.44071" lon="3.09996">
        <ele>45</ele>
        <time>2025-05-25T14:25:35Z</time>
      </trkpt>
      <trkpt lat="50.44114" lon="3.10016">
        <ele>46</ele>
        <time>2025-05-25T14:25:46Z</time>
      </trkpt>
      <trkpt lat="50.44138" lon="3.10039">
        <ele>46</ele>
        <time>2025-05-25T14:25:52Z</time>
      </trkpt>
      <trkpt lat="50.44152" lon="3.1003">
        <ele>47</ele>
        <time>2025-05-25T14:25:56Z</time>
      </trkpt>
      <trkpt lat="50.44151" lon="3.10132">
        <ele>46</ele>
        <time>2025-05-25T14:26:11Z</time>
      </trkpt>
      <trkpt lat="50.4413" lon="3.10274">
        <ele>46</ele>
        <time>2025-05-25T14:26:33Z</time>
      </trkpt>
      <trkpt lat="50.44128" lon="3.1043">
        <ele>45</ele>
        <time>2025-05-25T14:26:56Z</time>
      </trkpt>
      <trkpt lat="50.44069" lon="3.10574">
        <ele>46</ele>
        <time>2025-05-25T14:27:21Z</time>
      </trkpt>
      <trkpt lat="50.44088" lon="3.10771">
        <ele>46</ele>
        <time>2025-05-25T14:27:51Z</time>
      </trkpt>
      <trkpt lat="50.44071" lon="3.10887">
        <ele>46</ele>
        <time>2025-05-25T14:28:09Z</time>
      </trkpt>
      <trkpt lat="50.44078" lon="3.11005">
        <ele>46</ele>
        <time>2025-05-25T14:28:26Z</time>
      </trkpt>
      <trkpt lat="50.44134" lon="3.11259">
        <ele>41</ele>
        <time>2025-05-25T14:29:06Z</time>
      </trkpt>
      <trkpt lat="50.44128" lon="3.11425">
        <ele>39</ele>
        <time>2025-05-25T14:29:31Z</time>
      </trkpt>
      <trkpt lat="50.44172" lon="3.11634">
        <ele>36</ele>
        <time>2025-05-25T14:30:04Z</time>
      </trkpt>
      <trkpt lat="50.44195" lon="3.11656">
        <ele>36</ele>
        <time>2025-05-25T14:30:10Z</time>
      </trkpt>
      <trkpt lat="50.44126" lon="3.11994">
        <ele>37</ele>
        <time>2025-05-25T14:31:03Z</time>
      </trkpt>
      <trkpt lat="50.43734" lon="3.11755">
        <ele>46</ele>
        <time>2025-05-25T14:32:41Z</time>
      </trkpt>
      <trkpt lat="50.43731" lon="3.11801">
        <ele>45</ele>
        <time>2025-05-25T14:32:48Z</time>
      </trkpt>
      <trkpt lat="50.43694" lon="3.11975">
        <ele>44</ele>
        <time>2025-05-25T14:33:15Z</time>
      </trkpt>
      <trkpt lat="50.4367" lon="3.12066">
        <ele>45</ele>
        <time>2025-05-25T14:33:30Z</time>
      </trkpt>
      <trkpt lat="50.43468" lon="3.12645">
        <ele>42</ele>
        <time>2025-05-25T14:35:08Z</time>
      </trkpt>
      <trkpt lat="50.43436" lon="3.12755">
        <ele>43</ele>
        <time>2025-05-25T14:35:26Z</time>
      </trkpt>
      <trkpt lat="50.43428" lon="3.12756">
        <ele>43</ele>
        <time>2025-05-25T14:35:28Z</time>
      </trkpt>
      <trkpt lat="50.434" lon="3.12723">
        <ele>42</ele>
        <time>2025-05-25T14:35:36Z</time>
      </trkpt>
      <trkpt lat="50.43383" lon="3.12714">
        <ele>42</ele>
        <time>2025-05-25T14:35:40Z</time>
      </trkpt>
      <trkpt lat="50.43381" lon="3.12797">
        <ele>42</ele>
        <time>2025-05-25T14:35:53Z</time>
      </trkpt>
      <trkpt lat="50.43376" lon="3.12869">
        <ele>43</ele>
        <time>2025-05-25T14:36:03Z</time>
      </trkpt>
      <trkpt lat="50.43343" lon="3.13078">
        <ele>43</ele>
        <time>2025-05-25T14:36:35Z</time>
      </trkpt>
      <trkpt lat="50.43302" lon="3.13264">
        <ele>42</ele>
        <time>2025-05-25T14:37:05Z</time>
      </trkpt>
      <trkpt lat="50.433" lon="3.13296">
        <ele>42</ele>
        <time>2025-05-25T14:37:09Z</time>
      </trkpt>
      <trkpt lat="50.43357" lon="3.13283">
        <ele>42</ele>
        <time>2025-05-25T14:37:23Z</time>
      </trkpt>
      <trkpt lat="50.43362" lon="3.13676">
        <ele>42</ele>
        <time>2025-05-25T14:38:21Z</time>
      </trkpt>
      <trkpt lat="50.43351" lon="3.13758">
        <ele>42</ele>
        <time>2025-05-25T14:38:34Z</time>
      </trkpt>
      <trkpt lat="50.43307" lon="3.13965">
        <ele>45</ele>
        <time>2025-05-25T14:39:06Z</time>
      </trkpt>
      <trkpt lat="50.43306" lon="3.13998">
        <ele>45</ele>
        <time>2025-05-25T14:39:11Z</time>
      </trkpt>
      <trkpt lat="50.43319" lon="3.14031">
        <ele>45</ele>
        <time>2025-05-25T14:39:17Z</time>
      </trkpt>
      <trkpt lat="50.4335" lon="3.14076">
        <ele>44</ele>
        <time>2025-05-25T14:39:27Z</time>
      </trkpt>
      <trkpt lat="50.43365" lon="3.14125">
        <ele>44</ele>
        <time>2025-05-25T14:39:35Z</time>
      </trkpt>
      <trkpt lat="50.4343" lon="3.14381">
        <ele>40</ele>
        <time>2025-05-25T14:40:16Z</time>
      </trkpt>
      <trkpt lat="50.43493" lon="3.14468">
        <ele>41</ele>
        <time>2025-05-25T14:40:35Z</time>
      </trkpt>
      <trkpt lat="50.43644" lon="3.14431">
        <ele>37</ele>
        <time>2025-05-25T14:41:11Z</time>
      </trkpt>
      <trkpt lat="50.43667" lon="3.14435">
        <ele>37</ele>
        <time>2025-05-25T14:41:17Z</time>
      </trkpt>
      <trkpt lat="50.43668" lon="3.14479">
        <ele>39</ele>
        <time>2025-05-25T14:41:23Z</time>
      </trkpt>
      <trkpt lat="50.43775" lon="3.14446">
        <ele>39</ele>
        <time>2025-05-25T14:41:49Z</time>
      </trkpt>
      <trkpt lat="50.43888" lon="3.14424">
        <ele>36</ele>
        <time>2025-05-25T14:42:15Z</time>
      </trkpt>
      <trkpt lat="50.439" lon="3.14439">
        <ele>36</ele>
        <time>2025-05-25T14:42:19Z</time>
      </trkpt>
      <trkpt lat="50.43902" lon="3.14628">
        <ele>39</ele>
        <time>2025-05-25T14:42:47Z</time>
      </trkpt>
      <trkpt lat="50.43926" lon="3.14845">
        <ele>40</ele>
        <time>2025-05-25T14:43:20Z</time>
      </trkpt>
      <trkpt lat="50.44119" lon="3.14675">
        <ele>32</ele>
        <time>2025-05-25T14:44:11Z</time>
      </trkpt>
      <trkpt lat="50.44131" lon="3.14605">
        <ele>32</ele>
        <time>2025-05-25T14:44:22Z</time>
      </trkpt>
      <trkpt lat="50.44166" lon="3.14597">
        <ele>33</ele>
        <time>2025-05-25T14:44:30Z</time>
      </trkpt>
      <trkpt lat="50.44172" lon="3.14521">
        <ele>32</ele>
        <time>2025-05-25T14:44:42Z</time>
      </trkpt>
      <trkpt lat="50.44104" lon="3.14521">
        <ele>32</ele>
        <time>2025-05-25T14:44:58Z</time>
      </trkpt>
      <trkpt lat="50.44096" lon="3.14378">
        <ele>32</ele>
        <time>2025-05-25T14:45:19Z</time>
      </trkpt>
      <trkpt lat="50.44496" lon="3.14311">
        <ele>31</ele>
        <time>2025-05-25T14:46:53Z</time>
      </trkpt>
      <trkpt lat="50.44452" lon="3.13859">
        <ele>32</ele>
        <time>2025-05-25T14:48:01Z</time>
      </trkpt>
      <trkpt lat="50.44658" lon="3.1391">
        <ele>31</ele>
        <time>2025-05-25T14:48:50Z</time>
      </trkpt>
      <trkpt lat="50.44942" lon="3.13958">
        <ele>32</ele>
        <time>2025-05-25T14:49:56Z</time>
      </trkpt>
      <trkpt lat="50.45062" lon="3.13569">
        <ele>35</ele>
        <time>2025-05-25T14:51:01Z</time>
      </trkpt>
      <trkpt lat="50.45296" lon="3.13644">
        <ele>36</ele>
        <time>2025-05-25T14:51:56Z</time>
      </trkpt>
      <trkpt lat="50.45465" lon="3.1368">
        <ele>39</ele>
        <time>2025-05-25T14:52:36Z</time>
      </trkpt>
      <trkpt lat="50.45655" lon="3.13683">
        <ele>42</ele>
        <time>2025-05-25T14:53:21Z</time>
      </trkpt>
      <trkpt lat="50.45753" lon="3.13682">
        <ele>42</ele>
        <time>2025-05-25T14:53:43Z</time>
      </trkpt>
    </trkseg>
  </trk>
</gpx>